sat.trackr.live / text

‹ back to catalog

YAOGAN-30 04A

NORAD 43081 · 2017-085A

PAYLOAD ACTIVE UNKNOWN

§ Identity

Operator
Country
PRC
Launch date
2017-12-25
Launch site
XICLF
Launch vehicle
Mass (kg)
RCS (m²)

External: N2YO · Heavens-Above · Gunter

§ Orbital elements

Epoch: 2026-09-20T05:13:39.646272Z

Period
95.81 min
Inclination
34.9960°
Eccentricity
0.0005209
Mean motion
15.03026333 rev/d
Perigee alt
554.0 km
Apogee alt
561.2 km
Semi-major
6,935.7 km
B*
1.2392e-4
RAAN
290.7055°
Arg perigee
261.6774°
Mean anomaly
98.3343°
Rev number
47,702

§ Raw data

YAOGAN-30 04A1 43081U 17085A   26263.21781998  .00001674  00000+0  12392-3 0  99982 43081  34.9960 290.7055 0005209 261.6774  98.3343 15.03026333477022

JSON: /api/v1/satellites/43081 · /tle

For live sub-satellite position, see the globe view (requires WebGL).

§ Visibility from observer

Set your observer location to see the next 7 days of passes ≥ 10°. The values pass through the URL so the page stays shareable.

No JS? Fill the form by hand. The geolocation button needs JavaScript.